Location: Cactus School
(34.5700°N, 118.0931°W)
Time: 19:17:19
(UTC-07:00)

Transit 2A Rocket - Visible Passes

Search period start: 21 April 2024 00:00
Search period end: 01 May 2024 00:00
Orbit: 587 x 907 km, 66.7° (Epoch: 21 April)

Date Brightness Start Highest point End Pass type
(mag) Time Alt. Az. Time Alt. Az. Time Alt. Az.
21 Apr 5.5 20:53:51 10° NNW 20:59:29 54° ENE 21:02:08 31° ESE visible
21 Apr 7.1 22:37:26 10° WNW 22:41:37 21° WSW 22:41:59 20° WSW visible
22 Apr 6.2 20:10:18 10° N 20:15:22 32° NE 20:19:54 13° ESE visible
22 Apr 6.4 21:52:35 10° NW 21:57:54 37° WSW 21:59:45 30° SW visible
23 Apr 5.5 21:08:18 10° NNW 21:14:03 67° WSW 21:17:37 25° S visible
24 Apr 5.3 20:24:19 10° NNW 20:30:06 71° ENE 20:35:32 13° SE visible
24 Apr 7.7 22:08:50 10° WNW 22:12:04 15° WSW 22:15:22 10° SW visible
25 Apr 7.0 21:23:28 10° NW 21:28:22 28° WSW 21:33:24 10° SSW visible
26 Apr 6.1 20:38:57 10° NW 20:44:34 50° WSW 20:50:23 10° S visible
27 Apr 5.4 19:54:48 10° NNW 20:00:40 89° SW 20:06:43 10° SSE visible
27 Apr 8.0 21:41:04 10° W 21:42:27 11° WSW 21:43:50 10° WSW visible
28 Apr 7.5 20:54:29 10° WNW 20:58:47 21° WSW 21:03:11 10° SSW visible
29 Apr 6.7 20:09:38 10° NW 20:15:02 38° WSW 20:20:33 10° S visible
